Regional Weather Roundup
Issued by NWS Grand Forks, ND

Home | Current Version | Previous Version | Graphics & Text | Print | Product List | Glossary On
Versions: 1 2 3 4 5 6 7 8 9 10 11 12 13 14 15 16 17 18 19 20 21 22 23 24 25 26 27 28 29 30 31 32 33 34 35 36 37 38 39 40 41 42 43 44 45 46 47 48 49 50
000
ASUS43 KFGF 051510
RWRFGF
PRAIRIE TO PINES  WEATHER ROUNDUP
NATIONAL WEATHER SERVICE EASTERN NORTH DAKOTA/GRAND FORKS ND
900 AM CST THU MAR 05 2015

 **SATELLITE DATA USED TO AUGMENT SKY COVER AT AUTOMATED STATIONS**
 *****  WEATHER ACROSS EASTERN NORTH DAKOTA  *****

CITY           SKY/WX    TMP DP  RH WIND       PRES   REMARKS
GRAND FORKS    MOSUNNY   -4 -11  72 S12       30.33F WCI -22
GRAND FRKS AFB MOSUNNY    2  -9  61 S14       30.30F WCI -17
GRAND FRKS NWS   N/A     -2 N/A N/A S18         N/A  WCI -24
DEVILS LAKE    PTSUNNY    0  -9  65 S9        30.20S WCI -16
FARGO          MOSUNNY    1  -9  62 S15       30.39S WCI -18
WAHPETON ARPT  MOSUNNY   -2  -9  71 S9        30.43S WCI -18
$$

 ***** WEATHER ACROSS CENTRAL AND WESTERN NORTH DAKOTA  *****

CITY           SKY/WX    TMP DP  RH WIND       PRES   REMARKS
BISMARCK       MOSUNNY    4  -2  76 S6        30.20S WCI  -7
MINOT          MOSUNNY    5  -5  63 S12       30.09F WCI -11
JAMESTOWN      MOSUNNY    0  -7  72 S8        30.24F WCI -14
MINOT AFB      PTSUNNY    2  -6  69 S8        30.08F WCI -12
GARRISON         N/A     -1  -6  79 SE6       30.11F WCI -13
WILLISTON        N/A    N/A N/A N/A MISG      30.07S
DICKINSON      MOSUNNY   15   4  61 SW12      30.02S WCI   2
HETTINGER      PTSUNNY   13   2  61 S8        30.09S WCI   2
$$

 *****  OTHER AIRPORT OBSERVATIONS IN OUR AREA  *****

CITY           SKY/WX    TMP DP  RH WIND       PRES   REMARKS
WALHALLA         N/A      0  -9  65 E5        30.24S WCI -10
GRAFTON AIRPOR NOT AVBL
VALLEY CITY AR FLURRIES   0  -8  71 S14       30.29S WCI -19
CANDO          FAIR      -4 -11  71 S6        30.18S WCI -16
CAVALIER APRT  FAIR      -2 -11  65 S12       30.26F WCI -20
GWINNER        SUNNY      1  -8  66 SW14      30.36S WCI -17
ROLLA          FAIR       0  -8  71 SW17      30.10S WCI -21
 ***** THE ABOVE OBSERVATIONS ARE NON NWS ARE NOT QUALITY
       CONTROLLED AND MAY MIS-REPORT RAIN FOR SNOW...
$$

  *****  WEATHER ACROSS NORTHERN MINNESOTA  *****

CITY           SKY/WX    TMP DP  RH WIND       PRES   REMARKS
FLAG ISLAND    MOSUNNY  -13 -18  77 S6        30.27R WCI -27
WARROAD        MOSUNNY   -8 -15  71 SW10      30.28S WCI -26
ROSEAU         MOSUNNY   -8 -15  71 SW8       30.29F WCI -23
HALLOCK        NOT AVBL
THF RVR FALLS  MOSUNNY   -8 -15  71 S10       30.31F WCI -26
BAUDETTE       MOSUNNY  -10 -16  74 SW6       30.28R WCI -23
WASKISH        PTSUNNY   -6 -11  77 SW12      30.32R WCI -24
CROOKSTON      MOSUNNY   -2  -9  71 S13       30.36F WCI -21
$$
  *****  WEATHER ACROSS CENTRAL AND WEST MINNESOTA  *****

CITY           SKY/WX    TMP DP  RH WIND       PRES   REMARKS
FOSSTON        MOSUNNY   -6 -11  77 SW9       30.35R WCI -22
BEMIDJI        PTSUNNY   -8 -12  80 SW5       30.32R WCI -19
PARK RAPIDS    MOSUNNY   -6 -12  75 SW8       30.35R WCI -21
ELBOW LAKE     FAIR      -9 -13  82 S6        30.41S WCI -22
WADENA         MOSUNNY   -8 -11  84 SW6       30.38S WCI -21
DETROIT LAKES  MOSUNNY   -4  -8  84 SW5       30.36S WCI -15
MOORHEAD       SUNNY      1  -8  66 S14       30.40S WCI -17
FERGUS FALLS   MOSUNNY   -8 -15  71 S6        30.46S WCI -21
MORRIS MN      MOSUNNY   -6 -11  77 S6        30.43S WCI -18
STAPLES        MOSUNNY   -8 -11  84 S3        30.39R
$$
  *****  WEATHER ELSEWHERE ACROSS MINNESOTA  *****

CITY           SKY/WX    TMP DP  RH WIND       PRES   REMARKS
DULUTH         MOSUNNY   -6 -13  71 NW10      30.35R WCI -24
INTRNTL FALLS  MOSUNNY   -9 -14  78 SW7       30.31R WCI -24
ELY            MOSUNNY  -11 -17  77 CALM      30.32S
CLOQUET        MOSUNNY   -6 -13  71 W9        30.38R WCI -22
WHEATON        PTSUNNY   -6 -13  71 S7        30.45S WCI -20
BRAINERD       PTSUNNY  -11 -15  82 W5        30.42R WCI -23
HIBBING        MOSUNNY  -10 -17  71 CALM      30.35R
ALEXANDRIA     PTSUNNY   -8 -12  83 SW5       30.40R WCI -19
SAINT CLOUD    MOSUNNY   -5 -11  75 SW3       30.47R
MINNEAPOLIS    SUNNY     -2  -8  76 S5        30.52R WCI -12
$$

  *****  WEATHER ACROSS SOUTH DAKOTA  *****

CITY           SKY/WX    TMP DP  RH WIND       PRES   REMARKS
SIOUX FALLS    SUNNY      2  -6  69 S8        30.46R WCI -12
BROOKINGS      NOT AVBL
WATERTOWN      MOSUNNY   -7 -13  75 SE7       30.36S WCI -21
HURON          MOSUNNY    0  -9  65 S13       30.40S WCI -18
SISSETON         N/A      2  -9  60 SW10      30.40R WCI -14
ABERDEEN       MOSUNNY   -4 -12  68 S10       30.38R WCI -21
MITCHELL       SUNNY      5  -2  72 S12       30.43S WCI -11
PIERRE         MOSUNNY    1  -3  83 SE7       30.29R WCI -12
MOBRIDGE       SUNNY      4  -3  73 S15       30.21S WCI -14
RAPID CITY     SUNNY      9   2  73 CALM      30.13S
$$

  *****  SOME WEATHER IN NEARBY STATES *****

CITY           SKY/WX    TMP DP  RH WIND       PRES   REMARKS
GLASGOW MT     SUNNY     13   2  61 W6        30.06R WCI   4
GREAT FALLS MT CLEAR     28  12  51 SW12      30.10R WCI  18
CHEYENNE WY    MOSUNNY   27   8  44 SW6       30.14R WCI  20
SCOTTSBLUFF NE MOSUNNY   17   9  70 NW6       30.20R WCI   9
OMAHA NE       SUNNY      9   0  67 SE5       30.58R WCI   1
DES MOINES IA  MOSUNNY    7  -7  52 VRB3      30.58R
DAVENPORT IA   SUNNY     -1  -9  68 NW9       30.54R WCI -16
CHICAGO IL     MOSUNNY   10  -6  48 NW10      30.46R WCI  -4
EAU CLAIRE WI  SUNNY     -4 -14  62 W6        30.50R WCI -16
LA CROSSE WI   SUNNY      2 -10  57 CALM      30.55R
$$

  *****  SOME NATIONAL WEATHER *****

CITY           SKY/WX    TMP DP  RH WIND       PRES   REMARKS
LA GUARDIA NY  SNOW      27  24  89 NE12      30.14R VSB 1/4 WCI  17
RALEIGH NC     RAIN      55  52  89 N8G18     29.93R FOG
ATLANTA GA     DRIZZLE   45  43  93 NW22G35   30.01R FOG
NEW ORLEANS LA LGT RAIN  43  39  86 N17G23    30.19R FOG
OKLAHOMA CITY  SUNNY     20  12  71 NW7       30.56R WCI  11
ALBUQUERQUE NM SUNNY     26  18  71 N5        30.40R WCI  20
SALT LAKE CITY MOSUNNY   29  21  72 SE8       30.42R WCI  21
LOS ANGELES CA PTCLDY    52  28  39 CALM      30.24R
BOISE ID       PTCLDY    28  16  60 E3        30.38R
SEATTLE WA     MOCLDY    38  27  64 SE3       30.33R
$$

*** WEATHER ACROSS MANITOBA...SASKATCHEWAN AND ONTARIO ***
                ***ONTARIO***

CITY           SKY/WX    TMP DP  RH WIND       PRES   REMARKS
GERALDTON      SUNNY     -4 -17  54 W9        30.20S WCI -20
THUNDER BAY    SUNNY     -6 -15  65 SW8       30.37S WCI -21
SIOUX LOOKOUT  SUNNY     -9 -17  70 SW7       30.22S WCI -24
TORONTO        PTSUNNY    7  -4  61 N14       30.31S WCI -10
BIG TROUT LK   SUNNY     -9 -17  70 W9        30.02S WCI -27
PICKLE LAKE    SUNNY     -8 -18  59 W8        30.12R WCI -23
DRYDEN         SUNNY    -11 -17  77 SW9       30.21S WCI -29
KENORA         SUNNY     -9 -17  70 SW8       30.22R WCI -26
$$
                *** MANITOBA***

CITY           SKY/WX    TMP DP  RH WIND       PRES   REMARKS
BRANDON        SUNNY    -17 -24  70 NW5       30.13F WCI -29
DAUPHIN        SUNNY      0 -11  60 SW13      30.06F WCI -18
ISLAND LAKE    MOSUNNY  -11 -20  64 SW6       30.04F WCI -25
PILOT MOUND    NOT AVBL
THE PAS        CLOUDY    -9 -18  64 S10       29.89F WCI -28
THOMPSON       PTSUNNY  -11 -18  70 S6        29.87F WCI -25
WINNIPEG       SUNNY     -8 -17  65 S13G20    30.24F WCI -28
LYNN LAKE      PTSUNNY   -6 -15  65 SW12G18   29.69F WCI -24
CHURCHILL      PTSUNNY  -20 -27  69 S7        29.83F WCI -37
GILLAM         PTSUNNY  -11 -18  70 SW7       29.90F WCI -26
$$
                ***SASKATCHEWAN***

CITY           SKY/WX    TMP DP  RH WIND       PRES   REMARKS
ESTEVAN        SUNNY     -6 -11  77 SW5       30.04S WCI -17
KINDERSLEY     PTCLDY    10   3  72 SW7       29.95R WCI   0
LLOYDMINSTER   PTCLDY    16   7  67 W12G18    29.87R WCI   3
PRINCE ALBERT  PTSUNNY    0  -8  71 SW8       29.86S WCI -15
REGINA         MOSUNNY   -9 -17  70 SE10      30.00S WCI -28
YORKTON        SUNNY     -8 -17  65 S12G17    29.98F WCI -27
N. BATTLEFORD  CLEAR      3   0  85 W6        29.91S WCI  -8
LA RONGE       MOCLDY    -6 -13  71 SW2       29.76F
SASKATOON      SUNNY      0  -8  71 SW12      29.92S WCI -18
SWIFT CURRENT  SUNNY     16  10  79 W14       29.96R WCI   1
$$
NOTE: THESE ARE AUTOMATED STATIONS WITH LIMITED QUALITY CONTROL
      "FAIR" INDICATES FEW OR NO CLOUDS BELOW 12,000 FEET WITH NO
      SIGNIFICANT WEATHER AND/OR OBSTRUCTIONS TO VISIBILITY.
      SKY/WX - SKY CONDITION AND SIGNIFICANT WEATHER.
      TMP - AIR TEMPERATURE.    DP   - DEWPOINT TEMPERATURE.
      RH  - RELATIVE HUMIDITY.  PRES - PRESSURE.
      HX  - HEAT INDEX.         WCI  - WIND CHILL INDEX.
$



USA.gov is the U.S. government's official web portal to all federal, state and local government web resources and services.